Weather History for South Hill, VA

Change the Weather History Date:

Wednesday, August 7, 2013

  Actual Average (KEMV) Record (KEMV)
Temperature  
Mean Temperature 79 °F -  
Max Temperature 87 °F 87 °F 100 °F (2007)
Min Temperature 71 °F 65 °F 51 °F (2004)
Cooling Degree Days 14    
Growing Degree Days 29 (Base 50)    
Moisture  
Dew Point 72 °F    
Average Humidity 82    
Maximum Humidity 100    
Minimum Humidity 58    
Precipitation  
Precipitation 0.00 in - - ()
Sea Level Pressure  
Sea Level Pressure 30.13 in    
Wind  
Wind Speed 3 mph (South)    
Max Wind Speed 14 mph    
Max Gust Speed 18 mph    
Visibility 8 miles    
Events      
Averages and records for this station are not official NWS values.
T = Trace of Precipitation, MM = Missing Value Source: NWS Daily Summary

Daily Weather History Graph

Daily Weather History Graph

Search for Another Location

Airport:

Trip Planner

Search our weather history database for the weather conditions in past years. The results will help you decide how hot, cold, wet, or windy it might be!

Date:

Astronomy

Aug. 07, 2013 Rise Set
Actual Time 6:23 AM EDT 8:12 PM EDT
Civil Twilight 5:55 AM EDT 8:40 PM EDT
Nautical Twilight 5:21 AM EDT 9:14 PM EDT
Astronomical Twilight 4:44 AM EDT 9:50 PM EDT
Moon 7:06 AM EDT (8/7) 8:22 PM EDT (8/7)
Length of Visible Light 14h 45m
Length of Day
13h 49m
New Moon, 1% of the Moon is Illuminated
Aug 7
New Moon
Aug 14
First Quarter
Aug 20
Full
Aug 28
Last Quarter
Sep 5
New

Hourly Weather History & Observations

Time (EDT) Temp. Heat Index Dew Point Humidity Pressure Visibility Wind Dir Wind Speed Gust Speed Precip Events Conditions
12:15 AM 71.6 °F - 71.6 °F 100% 30.13 in 7.0 mi Calm Calm - N/A   Mostly Cloudy
12:35 AM 71.6 °F - 71.6 °F 100% 30.13 in 5.0 mi Calm Calm - N/A   Overcast
12:55 AM 71.6 °F - 71.6 °F 100% 30.13 in 7.0 mi Calm Calm - N/A   Overcast
1:15 AM 71.6 °F - 71.6 °F 100% 30.13 in 5.0 mi Calm Calm - N/A   Overcast
1:35 AM 71.6 °F - 71.6 °F 100% 30.13 in 5.0 mi Calm Calm - N/A   Overcast
1:55 AM 71.6 °F - 71.6 °F 100% 30.13 in 5.0 mi Calm Calm - N/A   Overcast
2:15 AM 71.6 °F - 71.6 °F 100% 30.12 in 5.0 mi Calm Calm - N/A   Overcast
2:35 AM 71.6 °F - 71.6 °F 100% 30.12 in 3.0 mi Calm Calm - N/A   Overcast
2:55 AM 71.6 °F - 71.6 °F 100% 30.12 in 2.0 mi South 3.5 mph - N/A   Overcast
3:15 AM 71.6 °F - 71.6 °F 100% 30.12 in 3.0 mi Calm Calm - N/A   Overcast
3:35 AM 71.6 °F - 71.6 °F 100% 30.12 in 4.0 mi Calm Calm - N/A   Overcast
3:55 AM 71.6 °F - 71.6 °F 100% 30.13 in 5.0 mi Calm Calm - N/A   Overcast
4:15 AM 71.6 °F - 71.6 °F 100% 30.13 in 5.0 mi Calm Calm - N/A   Overcast
4:35 AM 71.6 °F - 71.6 °F 100% 30.13 in 7.0 mi Calm Calm - N/A   Overcast
4:55 AM - - - N/A% 30.13 in 7.0 mi Calm Calm - N/A   Overcast
5:15 AM 71.6 °F - 71.6 °F 100% 30.13 in 7.0 mi Calm Calm - N/A   Overcast
5:35 AM 71.6 °F - 71.6 °F 100% 30.13 in 7.0 mi Calm Calm - N/A   Overcast
5:55 AM 71.6 °F - 71.6 °F 100% 30.14 in 7.0 mi Calm Calm - N/A   Overcast
6:15 AM 71.6 °F - 71.6 °F 100% 30.14 in 10.0 mi Calm Calm - N/A   Overcast
6:35 AM 71.6 °F - 71.6 °F 100% 30.14 in 7.0 mi Calm Calm - N/A   Unknown
6:55 AM 71.6 °F - 71.6 °F 100% 30.15 in 7.0 mi South 3.5 mph - N/A   Overcast
7:15 AM 71.6 °F - 71.6 °F 100% 30.15 in 7.0 mi South 3.5 mph - N/A   Scattered Clouds
7:35 AM 71.6 °F - 71.6 °F 100% 30.15 in 10.0 mi Calm Calm - N/A   Overcast
7:55 AM 71.6 °F - 71.6 °F 100% 30.15 in 10.0 mi South 3.5 mph - N/A   Scattered Clouds
8:15 AM 71.6 °F - 71.6 °F 100% 30.15 in 10.0 mi South 4.6 mph - N/A   Clear
8:35 AM 75.2 °F - 73.4 °F 94% 30.15 in 10.0 mi South 4.6 mph - N/A   Clear
8:55 AM 77.0 °F - 71.6 °F 83% 30.16 in 10.0 mi South 8.1 mph - N/A   Clear
9:15 AM 78.8 °F - 71.6 °F 78% 30.15 in 10.0 mi SSW 9.2 mph - N/A   Clear
9:35 AM 78.8 °F - 71.6 °F 78% 30.16 in 10.0 mi South 8.1 mph - N/A   Clear
9:55 AM 80.6 °F 84.6 °F 71.6 °F 74% 30.16 in 10.0 mi SSW 8.1 mph - N/A   Clear
10:15 AM 82.4 °F 87.2 °F 71.6 °F 70% 30.16 in 10.0 mi SSW 5.8 mph - N/A   Scattered Clouds
10:35 AM 82.4 °F 88.2 °F 73.4 °F 74% 30.16 in 10.0 mi South 9.2 mph - N/A   Unknown
10:55 AM 84.2 °F 90.9 °F 73.4 °F 70% 30.16 in 10.0 mi SSW 6.9 mph - N/A   Unknown
11:15 AM 82.4 °F 88.2 °F 73.4 °F 74% 30.15 in 10.0 mi SSW 10.4 mph - N/A   Scattered Clouds
11:35 AM 84.2 °F 89.6 °F 71.6 °F 66% 30.15 in 10.0 mi South 11.5 mph - N/A   Scattered Clouds
11:55 AM 84.2 °F 89.6 °F 71.6 °F 66% 30.16 in 10.0 mi South 11.5 mph - N/A   Scattered Clouds
12:15 PM 84.2 °F 90.9 °F 73.4 °F 70% 30.15 in 10.0 mi SSW 8.1 mph - N/A   Scattered Clouds
12:35 PM 84.2 °F 89.6 °F 71.6 °F 66% 30.15 in 10.0 mi SSW 13.8 mph 18.4 mph N/A   Scattered Clouds
12:55 PM 86.0 °F 91.8 °F 71.6 °F 62% 30.15 in 10.0 mi South 9.2 mph 16.1 mph N/A   Scattered Clouds
1:15 PM 84.2 °F 89.6 °F 71.6 °F 66% 30.14 in 1.0 mi South 12.7 mph - N/A   Scattered Clouds
1:35 PM 86.0 °F 91.8 °F 71.6 °F 62% 30.13 in 10.0 mi South 10.4 mph - N/A   Scattered Clouds
1:55 PM 86.0 °F 90.4 °F 69.8 °F 58% 30.13 in 10.0 mi South 9.2 mph - N/A   Scattered Clouds
2:15 PM 86.0 °F 91.8 °F 71.6 °F 62% 30.13 in 10.0 mi South 10.4 mph - N/A   Scattered Clouds
2:35 PM 87.8 °F 93.8 °F 71.6 °F 58% 30.13 in 10.0 mi SSW 6.9 mph - N/A   Clear
2:55 PM 87.8 °F 93.8 °F 71.6 °F 58% 30.13 in 10.0 mi SSW 10.4 mph 16.1 mph N/A   Clear
3:15 PM 87.8 °F 93.8 °F 71.6 °F 58% 30.13 in 10.0 mi NE 6.9 mph - N/A   Scattered Clouds
3:35 PM 87.8 °F 93.8 °F 71.6 °F 58% 30.13 in 10.0 mi SSW 8.1 mph - N/A   Scattered Clouds
3:55 PM 84.2 °F 89.6 °F 71.6 °F 66% 30.12 in 10.0 mi South 6.9 mph - N/A   Scattered Clouds
4:15 PM 87.8 °F 93.8 °F 71.6 °F 58% 30.11 in 10.0 mi South 6.9 mph - N/A   Mostly Cloudy
4:35 PM 87.8 °F 93.8 °F 71.6 °F 58% 30.10 in 10.0 mi SSW 8.1 mph - N/A   Scattered Clouds
4:55 PM 86.0 °F 91.8 °F 71.6 °F 62% 30.10 in 10.0 mi South 5.8 mph - N/A   Scattered Clouds
5:15 PM 87.8 °F 93.8 °F 71.6 °F 58% 30.10 in 10.0 mi SSW 10.4 mph - N/A   Scattered Clouds
5:35 PM 86.0 °F 91.8 °F 71.6 °F 62% 30.10 in 10.0 mi South 5.8 mph - N/A   Clear
5:55 PM 86.0 °F 91.8 °F 71.6 °F 62% 30.10 in 10.0 mi South 4.6 mph - N/A   Clear
6:15 PM 84.2 °F 89.6 °F 71.6 °F 66% 30.10 in 10.0 mi SSE 5.8 mph - N/A   Clear
6:35 PM 82.4 °F 88.2 °F 73.4 °F 74% 30.09 in 10.0 mi Calm Calm - N/A   Clear
6:55 PM 82.4 °F 88.2 °F 73.4 °F 74% 30.10 in 10.0 mi Calm Calm - N/A   Clear
7:15 PM 82.4 °F 88.2 °F 73.4 °F 74% 30.10 in 10.0 mi Calm Calm - N/A   Clear
7:35 PM 80.6 °F 86.2 °F 75.2 °F 84% 30.10 in 10.0 mi Calm Calm - N/A   Clear
7:55 PM 80.6 °F 85.4 °F 73.4 °F 79% 30.10 in 10.0 mi Calm Calm - N/A   Clear
8:15 PM 80.6 °F 85.4 °F 73.4 °F 79% 30.09 in 10.0 mi Calm Calm - N/A   Clear
8:35 PM 78.8 °F - 75.2 °F 89% 30.10 in 10.0 mi Calm Calm - N/A   Clear
8:55 PM 78.8 °F - 73.4 °F 83% 30.10 in 5.0 mi SSE 3.5 mph - N/A   Clear
9:15 PM 78.8 °F - 75.2 °F 89% 30.10 in 10.0 mi SSE 4.6 mph - N/A   Clear
9:35 PM 78.8 °F - 73.4 °F 83% 30.11 in 10.0 mi SSE 3.5 mph - N/A   Clear
9:55 PM 77.0 °F - 73.4 °F 89% 30.11 in 10.0 mi Calm Calm - N/A   Clear
10:15 PM 75.2 °F - 71.6 °F 89% 30.12 in 10.0 mi Calm Calm - N/A   Clear
10:35 PM 75.2 °F - 73.4 °F 94% 30.12 in 10.0 mi Calm Calm - N/A   Clear
10:55 PM 75.2 °F - 71.6 °F 89% 30.12 in 10.0 mi Calm Calm - N/A   Clear
11:15 PM 75.2 °F - 73.4 °F 94% 30.12 in 10.0 mi Calm Calm - N/A   Scattered Clouds
11:35 PM 75.2 °F - 73.4 °F 94% 30.12 in 10.0 mi SSE 4.6 mph - N/A   Mostly Cloudy
11:55 PM 75.2 °F - 73.4 °F 94% 30.12 in 10.0 mi SSE 6.9 mph - N/A   Scattered Clouds